Вернуться в каталог

NOAA 12 DEB

АктивенSSO
NORAD 38547·DEBRIS·🇺🇸 United States

Запущен May 14, 1991 с Vandenberg Space Force Base

Loading…

Ближайшие Пролёты (ближайшие 24 часа)

TLE

УстаревающийSource: Space-Track

Эпоха: Sep 10, 2026, 05:17 UTC

1 38547U 91032G   26253.22015393  .00000168  00000-0  80161-4 0  9990
2 38547  98.5325 237.2592 0006140  94.0071 266.1814 14.30977047775372

Отслеживайте NOAA 12 DEB в реальном времени с AllMySat

Download on the App Store